LFRU

Morlaix/Ploujean

Airport
ICAO code
LFRU
Summary
ICAO Region
EUR
ICAO Territory
Location

Ploujean, Bretagne,

Coordinates
48° 36' 12" N , 3° 48' 57" W
KCC
Metar
Observation
LFRU 090830Z AUTO VRB02KT 9999 FEW029/// BKN037/// OVC046/// ///CB M00/M01 Q1007
Station
Morlaix / Ploujean
Date/Time
2022-12-09 08:30:00
Wind speed
02 kts
Lowest cloud amount
few clouds
Temperature
-0°C
Dew point
-1°C
Humidity
92%
QNH
1007 hPa
Weather condition
n/a

Description

Morlaix - Ploujean Airport is an airport located 2 km northeast of Morlaix, a commune of the Finistère department in the Brittany region of France. The airport is located in the former commune of Ploujean.

Climatology

Temperate Marine climate/Oceanic climate (Köppen climate classification Cfb). Moderately cool summer and comparatively warm winter with a temperature range of only 14°C. Prevailing south-westerly winds from the Atlantic Ocean.

Runways

Designator Length Width Surface Rops
16/34 0 0 UNK No/No
5/23 1617 36 ASP No/No

Airport map

Aerial View

SKYbrary Partners:

Safety knowledge contributed by: